Вернуться в каталог

USA 159

АктивенВоенныеGEO
NORAD 26880·PAYLOAD·🇺🇸 United States

Запущен Aug 6, 2001 с Cape Canaveral Space Force Station

Loading…

TLE

СвежийSource: Space-Track

Эпоха: Sep 14, 2026, 06:34 UTC

1 26880U 01033A   26257.27369558 -.00000144  00000-0  00000-0 0  9998
2 26880  12.8684  15.8326 0002162 170.9885 189.8637  0.99198368 33842

Отслеживайте USA 159 в реальном времени с AllMySat

Download on the App Store